Dickinson, ND

3:07 PM MDT on May 29, 2017 (GMT -0600)
Dickinson Municipal

Weather History for KDIK - June, 2012

Change the Weather History Date:

Saturday, June 23, 2012

  Actual Average Record
Temperature  
Mean Temperature 68 °F 64 °F  
Max Temperature 79 °F 78 °F 102 °F (1988)
Min Temperature 56 °F 51 °F 33 °F (1942)
Degree Days  
Heating Degree Days 0 3  
Month to date heating degree days 68 119  
Since 1 June heating degree days 68 119  
Since 1 July heating degree days 7129 8559  
Cooling Degree Days 3 2  
Month to date cooling degree days 27 33  
Year to date cooling degree days 40 43  
Since 1 June cooling degree days 27 33  
Growing Degree Days 16 (Base 50)    
Moisture  
Dew Point 59 °F    
Average Humidity 75    
Maximum Humidity 93    
Minimum Humidity 56    
Precipitation  
Precipitation 0.00 in 0.11 in 1.85 in (1947)
Month to date precipitation 2.35 2.47  
Year to date precipitation 6.12 7.58  
Sea Level Pressure  
Sea Level Pressure 29.81 in    
Wind  
Wind Speed 14 mph (ENE)    
Max Wind Speed 23 mph    
Max Gust Speed 30 mph    
Visibility 10 miles    
Events Thunderstorm    
T = Trace of Precipitation, MM = Missing Value Source: NWS Daily Summary

Daily Weather History Graph

Daily Weather History Graph

Search for Another Location

Airport or City:

Trip Planner

Search our weather history database for the weather conditions in past years. The results will help you decide how hot, cold, wet, or windy it might be!

Date:

Astronomy

Jun. 23, 2012 Rise Set
Actual Time 4:57 AM MDT 8:49 PM MDT
Civil Twilight 4:18 AM MDT 9:29 PM MDT
Nautical Twilight 3:23 AM MDT 10:23 PM MDT
Astronomical Twilight 2:03 AM MDT 11:42 PM MDT
Moon 9:17 AM MDT (6/23) 11:00 PM MDT (6/23)
Length of Visible Light 17h 11m
Length of Day
15h 51m
Waxing Crescent, 16% of the Moon is Illuminated
Jun 23
Waxing Crescent
Jun 26
First Quarter
Jul 3
Full
Jul 10
Last Quarter
Jul 18
New

Hourly Weather History & Observations

Time (MDT) Temp. Dew Point Humidity Pressure Visibility Wind Dir Wind Speed Gust Speed Precip Events Conditions
12:56 AM 61.0 °F 54.0 °F 78% 29.72 in 10.0 mi ENE 12.7 mph - N/A   Clear
1:56 AM 62.1 °F 55.0 °F 78% 29.72 in 10.0 mi ENE 11.5 mph - N/A   Clear
2:56 AM 57.9 °F 54.0 °F 87% 29.71 in 10.0 mi NE 11.5 mph - N/A   Clear
3:56 AM 57.0 °F 54.0 °F 89% 29.73 in 10.0 mi NE 9.2 mph - N/A   Clear
4:56 AM 55.9 °F 54.0 °F 93% 29.73 in 10.0 mi NE 10.4 mph - N/A   Clear
5:56 AM 57.0 °F 54.0 °F 89% 29.75 in 10.0 mi NE 9.2 mph - N/A   Clear
6:56 AM 61.0 °F 55.9 °F 83% 29.76 in 10.0 mi ENE 12.7 mph - N/A   Clear
7:56 AM 64.0 °F 57.9 °F 80% 29.77 in 10.0 mi ENE 11.5 mph - N/A   Clear
8:56 AM 68.0 °F 59.0 °F 73% 29.77 in 10.0 mi NE 12.7 mph - N/A   Scattered Clouds
9:56 AM 71.1 °F 59.0 °F 66% 29.76 in 10.0 mi ENE 15.0 mph - N/A   Mostly Cloudy
10:56 AM 75.0 °F 60.1 °F 60% 29.77 in 10.0 mi NE 15.0 mph 23.0 mph N/A   Mostly Cloudy
11:56 AM 75.9 °F 60.1 °F 58% 29.78 in 10.0 mi NE 17.3 mph - N/A Thunderstorm Mostly Cloudy
12:07 PM 73.4 °F 59.0 °F 61% 29.82 in 10.0 mi ENE 20.7 mph 27.6 mph N/A   Scattered Clouds
12:56 PM 73.0 °F 62.1 °F 68% 29.81 in 10.0 mi NNE 19.6 mph 25.3 mph N/A   Clear
1:56 PM 75.0 °F 62.1 °F 64% 29.80 in 10.0 mi NE 23.0 mph 28.8 mph N/A   Partly Cloudy
2:30 PM 75.2 °F 60.8 °F 61% 29.86 in 10.0 mi ENE 17.3 mph 25.3 mph N/A   Mostly Cloudy
2:56 PM 75.9 °F 62.1 °F 62% 29.83 in 10.0 mi ENE 16.1 mph 25.3 mph N/A   Mostly Cloudy
3:29 PM 75.2 °F 62.6 °F 65% 29.86 in 10.0 mi ENE 17.3 mph 24.2 mph N/A   Partly Cloudy
3:56 PM 78.1 °F 63.0 °F 60% 29.82 in 10.0 mi East 15.0 mph 23.0 mph N/A   Clear
4:56 PM 77.0 °F 61.0 °F 58% 29.83 in 10.0 mi ENE 16.1 mph - N/A   Partly Cloudy
5:56 PM 77.0 °F 62.1 °F 60% 29.83 in 10.0 mi ENE 20.7 mph 25.3 mph N/A   Mostly Cloudy
6:56 PM 73.9 °F 64.0 °F 71% 29.84 in 10.0 mi ENE 16.1 mph 26.5 mph N/A   Scattered Clouds
7:56 PM 71.1 °F 62.1 °F 73% 29.87 in 10.0 mi ENE 13.8 mph 23.0 mph N/A   Clear
8:56 PM 68.0 °F 61.0 °F 78% 29.89 in 10.0 mi ENE 10.4 mph - N/A   Clear
9:56 PM 66.0 °F 62.1 °F 87% 29.91 in 10.0 mi ENE 11.5 mph - N/A   Clear
10:56 PM 64.0 °F 62.1 °F 93% 29.91 in 10.0 mi ENE 8.1 mph - N/A   Clear
11:56 PM 63.0 °F 61.0 °F 93% 29.92 in 10.0 mi ENE 11.5 mph - N/A   Clear